User: anonymous
Location: Key Biscayne
(25.6930°N, 80.1630°W)
Time: 22:50:34
(UTC-04:00)
Language:

CZ-2D R/B - Orbit

View from above orbital plane
View from above orbital plane
View from above satellite
View from above satellite

Ground track
Ground track

The orbit data is extracted from the following two-line orbital elements,

1 28738U 05024B   14258.41970837  .00002607  00000-0  17782-3 0  8451
2 28738 097.6248 292.9014 0012790 205.6254 154.4341 15.07042193504054
Epoch (UTC): 15 September 2014 10:04:22
Eccentricity: 0.0012790
inclination: 97.6248°
perigee height: 536 km
apogee height: 554 km
right ascension of ascending node: 292.9014°
argument of perigee: 205.6254°
revolutions per day: 15.07042193
mean anomaly at epoch: 154.4341°
orbit number at epoch: 50405

The dashed part of the orbit path shows where the satellite is in the earth's shadow,  

DLR